This is the latest recevied weather packets stored in our database for station/object E22ZMG-3. If no packets are shown the sender has not sent any weather packets the latest 10 day(s).
| Time | Temp. | Humidity | Pressure | Rain* | Wind** | Luminosity | Snow |
|---|---|---|---|---|---|---|---|
| 1777886926 | 42.78° C | 22% | 972 hPa | - | - | 0 W/m² | - |
| 1777886302 | 43.33° C | 22% | 972 hPa | - | - | 0 W/m² | - |
| 1777885677 | 42.78° C | 22% | 972 hPa | - | - | 0 W/m² | - |
| 1777885053 | 42.22° C | 23% | 972 hPa | - | - | 0 W/m² | - |
| 1777884428 | 43.33° C | 23% | 972 hPa | - | - | 0 W/m² | - |
| 1777883803 | 42.78° C | 23% | 972 hPa | - | - | 0 W/m² | - |
| 1777883177 | 42.22° C | 23% | 972 hPa | - | - | 0 W/m² | - |
| 1777882552 | 42.78° C | 24% | 973 hPa | - | - | 0 W/m² | - |
| 1777881928 | 42.78° C | 24% | 973 hPa | - | - | 0 W/m² | - |
| 1777881303 | 41.67° C | 23% | 973 hPa | - | - | 0 W/m² | - |
| 1777880679 | 41.11° C | 22% | 973 hPa | - | - | 0 W/m² | - |
| 1777880054 | 42.22° C | 24% | 973 hPa | - | - | 0 W/m² | - |
| 1777879429 | 43.89° C | 20% | 973 hPa | - | - | 0 W/m² | - |
| 1777878805 | 43.33° C | 23% | 974 hPa | - | - | 0 W/m² | - |
| 1777878180 | 42.78° C | 22% | 974 hPa | - | - | 0 W/m² | - |
| 1777877555 | 41.67° C | 24% | 974 hPa | - | - | 0 W/m² | - |
| 1777876931 | 42.22° C | 22% | 975 hPa | - | - | 0 W/m² | - |
| 1777876305 | 42.22° C | 22% | 975 hPa | - | - | 0 W/m² | - |
| 1777875996 | 41.67° C | 24% | 975 hPa | - | - | 0 W/m² | - |
| 1777875371 | 41.11° C | 25% | 975 hPa | - | - | 0 W/m² | - |
| 1777874747 | 42.22° C | 24% | 975 hPa | - | - | 0 W/m² | - |
| 1777874122 | 42.22° C | 25% | 976 hPa | - | - | 0 W/m² | - |
| 1777873497 | 41.11° C | 24% | 976 hPa | - | - | 0 W/m² | - |
| 1777872873 | 42.22° C | 26% | 976 hPa | - | - | 0 W/m² | - |
| 1777872249 | 41.11° C | 27% | 976 hPa | - | - | 0 W/m² | - |
* Rain since midnight (hover to see other rain measurements)
** Current wind speed in m/s (hover to see current wind gust speed)